SCP
0 0 0 0 0 -0 -0 -0 0 0 0 0 -0 -0 -0 -0 -0 -0 -0 -0 -0 -0 -0 -0 -0 -0 -0 -0 -0 0 0 0 -0 -0 -0 -0 -0 -0 -0 -0 -0 -0 -0
0 0 0 0 0 0 0 0 0 0 0 0 0 0 -0 -0 -0 -0 0 0 0 0 0 -0 -0 -0 -0 -0 -0 0 0 0 -0 -0 -0 0 0 -0 -0 -0 -0 -0 -0
0 0 0 0 0 0 0 0 0 0 0 0 0 0 0 0 0 -0 0 0 0 0 0 0 -0 -0 -0 -0 0 0 0 0 0 0 0 0 -0 -0 -0 -0 -0 -0 -0
0 0 0 0 0 0 0 0 0 0 0 0 0 0 0 0 0 0 0 0 0 0 0 0 0 0 -0 0 0 0 0 0 0 0 0 0 0 -0 -0 -0 -0 -0 -0
0 0 0 0 0 0 0 0 0 0 0 0 0 0 0 0 0 0 0 0 0 0 0 0 0 0 0 0 0 0 0 0 0 0 0 0 0 -0 0 -0 -0 -0 -0
0 0 0 0 0 0 0 0 0 0 0 0 0 0 0 0 0 0 0 0 0 0 0 0 0 0 0 0 0 0 0 0 0 0 0 0 -0 -0 0 0 -0 -0 -0
0 0 0 0 0 0 0 0 0 0 0 0 0 0 0 0 0 0 0 0 0 0 0 0 0 0 0 0 0 0 0 0 0 0 0 -0 -0 -0 -0 -0 0 -0 -0
0 0 0 0 0 0 0 0 0 0 0 0 0 0 0 0 0 0 0 0 0 0 0 0 0 0 0 0 0 0 0 0 0 0 0 -0 0 0 0 0 -0 0 -0
0 0 0 0 0 0 0 0 0 1 0 0 0 0 0 0 0 0 0 0 0 0 0 0 0 0 0 0 0 0 0 0 0 0 0 -0 0 0 0 0 0 0 0
0 0 0 0 0 0 0 0 0 0 0 0 0 0 0 0 0 0 0 0 0 0 0 0 0 0 0 0 0 0 0 0 0 0 0 0 0 0 0 0 0 0 0
0 0 0 0 0 0 0 0 0 0 0 0 0 0 0 0 0 0 0 0 0 0 0 0 0 0 0 0 0 0 0 0 0 0 0 -0 0 0 0 0 0 0 0
0 0 0 0 0 0 0 0 0 0 0 0 0 0 0 0 0 0 0 0 0 0 0 0 0 0 0 0 0 0 0 0 0 0 0 0 0 0 0 0 0 0 0
0 0 0 0 0 0 0 0 0 0 0 0 0 0 0 0 0 0 0 0 0 0 0 0 0 0 0 0 0 0 0 0 0 0 0 0 0 0 0 0 0 0 0
0 0 0 0 0 0 0 0 0 0 0 0 0 0 0 0 0 0 0 0 0 0 0 0 0 0 0 0 0 0 0 0 0 0 0 0 0 0 0 0 0 0 0
0 0 0 0 0 0 0 0 0 0 0 0 0 0 0 0 0 0 0 0 0 0 0 0 0 0 0 0 0 0 0 0 0 0 0 0 0 0 0 0 0 0 0
0 0 0 0 0 0 0 0 0 0 0 0 0 0 0 0 0 0 0 0 0 0 0 0 0 0 0 0 0 0 0 0 0 0 0 0 0 0 0 0 -0 0 0
0 0 0 0 0 0 0 0 0 0 0 0 0 0 0 0 0 0 0 0 0 0 0 0 0 0 0 0 0 0 0 0 0 0 0 0 0 0 0 0 0 0 0
0 0 0 0 0 0 0 0 0 0 0 0 0 0 0 0 0 0 0 0 0 0 0 0 0 0 0 0 0 0 0 0 0 0 0 0 0 0 0 0 0 0 0
0 0 0 0 0 0 0 0 0 0 0 0 0 0 0 0 0 0 0 0 0 0 0 0 0 0 0 0 0 0 0 0 0 0 0 0 0 0 0 0 0 0 0
0 0 0 0 0 0 0 0 0 0 0 0 0 0 0 0 0 0 0 0 0 0 0 0 0 0 0 0 0 0 0 0 0 0 0 0 0 0 0 0 0 0 0
0 0 0 0 0 0 0 0 0 0 0 0 0 0 0 0 0 0 0 0 0 0 0 0 0 0 0 0 0 0 0 0 0 0 0 0 0 0 0 0 0 0 0
0 0 0 0 0 0 0 0 0 0 0 0 0 0 0 0 0 0 0 0 0 0 0 0 0 0 0 0 0 0 0 0 0 0 0 0 0 0 0 0 0 0 0
0 0 0 0 0 0 0 0 0 0 0 0 0 0 0 0 0 0 0 0 0 0 0 0 0 0 0 0 0 0 0 0 0 0 0 0 0 0 0 0 0 0 0
0 0 0 0 0 0 0 0 0 0 0 0 0 0 0 0 0 0 0 0 0 0 0 0 0 0 0 0 0 0 0 0 0 0 0 0 0 0 0 0 0 0 0
0 0 0 0 0 0 0 0 0 0 0 0 0 0 0 0 0 0 0 0 0 0 0 0 0 0 0 0 0 0 0 0 0 0 0 0 0 0 0 0 0 0 0
0 0 0 0 0 0 0 0 0 0 0 0 0 0 0 0 0 0 0 0 0 0 0 0 0 0 0 0 0 0 0 0 0 0 0 0 0 0 0 0 0 0 0
Wind_Speed_500mb
18 17 21 26 27 23 24 30 28 24 23 21 21 22 21 21 20 20 18 17 15 12 11 9 10 11 10 10 15 18 19 18 17 21 23 27 29 31 31 33 29 31 34
15 20 21 25 27 26 24 25 24 23 22 20 20 20 19 17 16 16 16 15 14 13 14 15 15 18 17 18 20 21 21 21 21 20 22 26 30 37 38 35 31 32 32
13 21 21 25 26 25 25 23 22 22 20 20 20 21 20 16 13 13 14 15 15 17 20 20 19 20 21 22 23 24 25 27 27 24 21 25 28 38 36 35 34 33 36
8 20 20 20 23 23 21 21 19 19 18 18 18 21 20 17 14 12 12 12 15 16 16 15 14 17 18 21 23 27 29 27 25 23 22 19 26 32 34 32 32 32 27
17 16 18 18 20 18 17 16 16 17 16 17 18 19 19 19 16 13 10 10 13 15 11 12 14 14 11 17 24 26 25 22 16 15 20 17 20 28 32 30 27 22 22
8 9 12 13 14 15 16 17 16 16 16 16 18 19 20 19 19 18 12 11 13 13 12 13 13 11 7 12 25 30 22 19 13 12 16 16 14 20 27 29 28 24 28
10 8 9 9 10 11 11 13 16 17 18 18 17 19 20 22 21 20 17 14 15 14 12 13 14 10 9 13 26 32 26 20 15 13 15 6 16 24 26 28 29 28 27
14 13 7 8 7 7 10 12 14 15 18 20 20 19 21 24 24 23 22 18 18 16 14 12 12 9 9 14 22 32 31 25 20 13 11 3 15 20 29 27 31 30 18
19 18 18 20 15 13 13 12 14 18 19 19 22 23 23 23 24 25 25 22 22 21 18 15 15 11 11 14 20 28 32 30 27 21 14 8 10 24 27 23 19 16 13
21 22 22 22 18 15 14 15 15 15 17 21 23 23 25 25 25 26 28 26 26 23 22 18 17 15 15 15 19 26 30 32 28 24 18 15 18 20 19 15 10 2 1
30 29 29 23 20 17 17 14 13 15 17 18 21 25 27 27 28 27 27 29 28 27 26 22 20 19 19 19 19 23 29 33 28 23 15 18 24 27 19 13 5 2 7
45 39 30 25 24 23 22 21 18 17 17 17 19 22 28 27 26 28 28 28 28 29 29 28 24 24 24 25 25 22 25 31 32 24 17 15 28 27 25 20 14 15 16
39 38 36 33 29 28 29 28 26 23 21 19 17 21 22 27 29 25 29 32 30 30 31 32 31 32 29 30 30 27 23 27 30 27 20 13 19 23 23 22 20 24 23
35 34 35 36 34 29 30 33 31 29 26 23 19 21 23 24 27 27 22 25 28 29 30 34 36 36 35 32 34 32 29 28 32 32 27 24 21 27 26 20 18 21 28
33 31 32 33 34 35 36 34 33 30 28 27 26 25 26 30 28 30 32 31 31 35 37 40 39 40 40 40 38 38 36 35 37 36 33 32 27 28 33 28 24 31 32
31 31 33 38 38 37 35 34 32 30 29 30 31 33 33 32 39 35 36 39 42 42 42 45 44 45 45 44 45 43 41 34 40 44 39 35 37 36 34 32 34 32 32
30 24 31 38 41 39 35 34 33 32 32 31 31 33 36 38 38 42 50 50 45 42 49 52 45 47 46 48 49 48 46 44 39 50 47 41 40 44 43 42 38 33 32
35 33 33 36 40 41 39 36 35 35 34 33 34 36 38 40 41 43 44 45 45 47 50 46 45 45 45 45 50 52 54 53 51 47 53 47 45 43 44 41 36 37 37
41 43 41 38 41 43 41 40 40 40 39 36 37 39 40 42 43 41 41 41 40 39 39 46 50 48 45 45 49 49 54 60 62 56 56 56 50 46 51 46 40 38 40
49 53 50 43 38 40 42 43 46 46 44 42 41 43 41 42 44 41 38 38 41 41 40 41 46 53 58 51 53 55 57 55 61 68 63 59 61 55 50 47 44 42 44
15 37 37 40 43 42 44 46 51 51 48 47 45 43 43 43 45 45 40 38 37 38 37 37 40 44 52 52 48 55 55 63 60 66 72 65 64 63 58 57 48 48 50
49 23 8 23 28 37 43 44 46 47 51 51 49 46 45 46 47 48 46 40 39 38 36 35 35 37 40 43 45 42 51 58 56 73 70 73 76 71 73 64 53 53 53
74 60 37 14 13 23 26 41 46 51 55 54 51 46 46 49 49 50 49 47 43 42 41 38 36 38 39 37 45 50 29 39 41 53 70 77 71 74 74 69 62 57 53
85 75 57 35 13 13 22 28 46 50 51 51 49 41 39 45 51 52 52 52 51 49 48 45 43 43 43 44 44 44 61 39 21 25 48 61 72 75 72 72 72 66 59
79 79 72 60 36 21 18 26 30 45 47 51 56 53 46 44 44 43 43 49 50 50 48 49 49 49 49 49 49 50 51 57 64 58 41 47 48 70 81 86 81 78 68
79 77 79 72 62 47 28 18 23 33 40 43 37 40 40 36 37 40 40 38 39 44 45 46 48 53 54 57 57 57 56 51 47 54 64 48 40 61 75 82 86 82 79
Wind_Direction_500mb
155 149 157 162 158 149 146 146 148 143 138 126 120 124 125 126 125 128 135 141 147 154 153 141 122 111 103 108 110 110 115 132 135 122 122 119 118 128 127 122 123 119 119
142 151 161 165 161 152 147 153 153 151 149 145 133 133 131 131 128 124 126 129 127 127 125 123 119 106 100 105 107 111 113 114 114 117 123 119 117 123 122 124 129 126 116
137 151 163 166 165 164 157 155 155 157 158 158 153 155 145 140 141 134 128 123 114 110 115 114 111 101 98 103 107 111 112 110 109 111 115 117 120 130 127 125 127 121 118
136 158 164 165 166 172 175 170 167 166 167 167 170 169 166 156 160 155 142 135 126 125 131 143 135 122 102 108 111 114 113 110 108 99 123 118 132 136 139 131 129 128 116
118 135 158 164 171 171 175 180 180 183 184 179 177 184 179 174 173 172 162 154 152 164 162 160 154 146 126 125 132 127 122 114 114 116 115 127 139 141 147 152 151 140 125
142 113 139 155 173 178 185 194 196 194 198 200 193 194 191 193 189 188 190 190 190 181 178 174 171 179 178 150 155 146 135 126 127 134 128 124 151 160 151 154 150 144 130
198 147 158 150 152 162 175 193 205 209 204 204 207 208 210 206 207 209 209 215 206 200 191 189 193 200 183 164 165 160 159 151 149 145 127 109 173 166 155 150 144 138 132
217 203 219 208 210 211 212 211 209 212 216 213 210 211 215 220 221 219 217 221 211 211 207 206 202 204 183 165 168 171 177 166 174 171 153 175 147 158 166 152 148 142 137
194 212 240 253 254 237 226 226 227 224 220 219 221 222 220 220 224 224 220 222 218 217 218 220 213 206 196 174 172 176 187 188 191 189 189 208 198 156 142 145 145 149 128
223 226 246 258 255 249 238 232 233 232 233 231 229 226 226 224 223 223 225 226 225 224 221 223 218 216 206 190 179 178 187 195 195 195 204 219 211 186 170 155 160 161 220
232 246 261 256 255 251 250 243 241 249 245 242 236 230 228 227 227 229 227 227 229 227 225 225 222 218 213 205 194 188 194 199 201 200 211 214 190 193 188 183 193 250 302
239 247 250 249 251 256 257 259 261 259 248 243 240 236 229 226 229 230 229 229 232 232 229 228 229 223 218 212 207 198 198 206 208 211 214 211 194 198 198 206 227 259 276
248 247 244 243 239 253 257 261 265 264 256 248 238 233 229 225 223 229 230 226 226 231 234 233 231 229 225 219 216 213 212 213 208 203 189 209 225 223 222 226 227 248 262
242 244 242 240 240 246 252 256 259 260 258 255 246 236 231 226 222 221 225 230 233 233 244 243 242 239 234 230 224 220 219 221 212 205 196 200 233 252 248 235 244 251 262
253 249 248 246 251 256 260 252 254 253 255 255 254 251 246 241 231 228 230 238 244 240 242 252 248 241 239 236 232 226 222 224 225 223 219 217 230 256 256 257 263 261 262
264 261 261 259 260 260 252 251 251 251 253 253 251 250 250 244 242 239 230 233 235 241 243 246 253 248 244 241 239 235 228 223 223 226 228 227 224 238 257 266 280 264 252
264 271 263 263 257 253 249 248 249 253 255 255 255 252 249 248 244 239 240 243 242 241 244 249 250 248 247 243 241 241 237 227 224 226 230 233 229 233 247 260 272 253 245
275 283 284 272 258 250 249 246 247 251 256 260 260 256 252 250 248 248 246 245 247 247 246 245 245 248 247 250 245 242 241 238 234 228 226 234 236 238 245 258 270 246 239
285 286 276 273 270 259 254 252 250 249 254 261 265 262 256 252 250 248 248 250 246 242 243 244 244 245 248 251 254 251 245 241 239 238 234 237 238 240 252 260 263 250 237
260 264 266 263 265 260 255 256 256 252 254 258 263 263 257 250 248 248 247 247 249 249 246 245 246 245 245 249 257 256 251 243 239 239 240 241 242 240 243 254 261 259 240
273 260 254 253 260 259 258 259 260 261 262 264 267 262 254 246 245 248 246 245 245 246 248 247 247 247 242 244 255 255 257 254 243 235 237 243 242 239 239 243 251 263 247
36 50 230 242 242 251 263 269 269 268 265 263 262 259 254 247 245 248 253 249 247 246 247 250 248 248 247 242 241 247 254 256 254 242 240 239 244 246 242 253 252 255 243
20 20 22 16 254 248 262 274 275 275 269 265 265 264 257 248 244 246 249 251 247 245 247 247 247 248 250 248 239 234 251 247 254 252 245 246 246 245 243 237 242 248 240
6 5 8 10 0 264 261 265 281 280 277 274 271 261 249 245 245 246 246 247 249 250 249 248 247 246 246 247 247 240 234 249 248 262 249 246 241 246 244 229 241 243 240
359 358 356 357 351 339 298 275 269 278 278 276 269 260 252 244 241 242 244 244 244 244 246 246 246 246 246 246 244 246 247 248 250 260 269 259 253 246 239 238 241 241 242
356 354 351 344 347 341 334 331 291 266 278 287 277 259 249 247 245 249 246 242 244 245 244 244 247 249 249 248 247 245 245 248 251 249 248 253 267 253 242 238 239 239 242
Wind_Speed_850mb
18 17 21 26 27 23 24 30 28 24 23 21 21 22 21 21 20 20 18 17 15 12 11 9 10 11 10 10 15 18 19 18 17 21 23 27 29 31 31 33 29 31 34
15 20 21 25 27 26 24 25 24 23 22 20 20 20 19 17 16 16 16 15 14 13 14 15 15 18 17 18 20 21 21 21 21 20 22 26 30 37 38 35 31 32 32
13 21 21 25 26 25 25 23 22 22 20 20 20 21 20 16 13 13 14 15 15 17 20 20 19 20 21 22 23 24 25 27 27 24 21 25 28 38 36 35 34 33 36
8 20 20 20 23 23 21 21 19 19 18 18 18 21 20 17 14 12 12 12 15 16 16 15 14 17 18 21 23 27 29 27 25 23 22 19 26 32 34 32 32 32 27
17 16 18 18 20 18 17 16 16 17 16 17 18 19 19 19 16 13 10 10 13 15 11 12 14 14 11 17 24 26 25 22 16 15 20 17 20 28 32 30 27 22 22
8 9 12 13 14 15 16 17 16 16 16 16 18 19 20 19 19 18 12 11 13 13 12 13 13 11 7 12 25 30 22 19 13 12 16 16 14 20 27 29 28 24 28
10 8 9 9 10 11 11 13 16 17 18 18 17 19 20 22 21 20 17 14 15 14 12 13 14 10 9 13 26 32 26 20 15 13 15 6 16 24 26 28 29 28 27
14 13 7 8 7 7 10 12 14 15 18 20 20 19 21 24 24 23 22 18 18 16 14 12 12 9 9 14 22 32 31 25 20 13 11 3 15 20 29 27 31 30 18
19 18 18 20 15 13 13 12 14 18 19 19 22 23 23 23 24 25 25 22 22 21 18 15 15 11 11 14 20 28 32 30 27 21 14 8 10 24 27 23 19 16 13
21 22 22 22 18 15 14 15 15 15 17 21 23 23 25 25 25 26 28 26 26 23 22 18 17 15 15 15 19 26 30 32 28 24 18 15 18 20 19 15 10 2 1
30 29 29 23 20 17 17 14 13 15 17 18 21 25 27 27 28 27 27 29 28 27 26 22 20 19 19 19 19 23 29 33 28 23 15 18 24 27 19 13 5 2 7
45 39 30 25 24 23 22 21 18 17 17 17 19 22 28 27 26 28 28 28 28 29 29 28 24 24 24 25 25 22 25 31 32 24 17 15 28 27 25 20 14 15 16
39 38 36 33 29 28 29 28 26 23 21 19 17 21 22 27 29 25 29 32 30 30 31 32 31 32 29 30 30 27 23 27 30 27 20 13 19 23 23 22 20 24 23
35 34 35 36 34 29 30 33 31 29 26 23 19 21 23 24 27 27 22 25 28 29 30 34 36 36 35 32 34 32 29 28 32 32 27 24 21 27 26 20 18 21 28
33 31 32 33 34 35 36 34 33 30 28 27 26 25 26 30 28 30 32 31 31 35 37 40 39 40 40 40 38 38 36 35 37 36 33 32 27 28 33 28 24 31 32
31 31 33 38 38 37 35 34 32 30 29 30 31 33 33 32 39 35 36 39 42 42 42 45 44 45 45 44 45 43 41 34 40 44 39 35 37 36 34 32 34 32 32
30 24 31 38 41 39 35 34 33 32 32 31 31 33 36 38 38 42 50 50 45 42 49 52 45 47 46 48 49 48 46 44 39 50 47 41 40 44 43 42 38 33 32
35 33 33 36 40 41 39 36 35 35 34 33 34 36 38 40 41 43 44 45 45 47 50 46 45 45 45 45 50 52 54 53 51 47 53 47 45 43 44 41 36 37 37
41 43 41 38 41 43 41 40 40 40 39 36 37 39 40 42 43 41 41 41 40 39 39 46 50 48 45 45 49 49 54 60 62 56 56 56 50 46 51 46 40 38 40
49 53 50 43 38 40 42 43 46 46 44 42 41 43 41 42 44 41 38 38 41 41 40 41 46 53 58 51 53 55 57 55 61 68 63 59 61 55 50 47 44 42 44
15 37 37 40 43 42 44 46 51 51 48 47 45 43 43 43 45 45 40 38 37 38 37 37 40 44 52 52 48 55 55 63 60 66 72 65 64 63 58 57 48 48 50
49 23 8 23 28 37 43 44 46 47 51 51 49 46 45 46 47 48 46 40 39 38 36 35 35 37 40 43 45 42 51 58 56 73 70 73 76 71 73 64 53 53 53
74 60 37 14 13 23 26 41 46 51 55 54 51 46 46 49 49 50 49 47 43 42 41 38 36 38 39 37 45 50 29 39 41 53 70 77 71 74 74 69 62 57 53
85 75 57 35 13 13 22 28 46 50 51 51 49 41 39 45 51 52 52 52 51 49 48 45 43 43 43 44 44 44 61 39 21 25 48 61 72 75 72 72 72 66 59
79 79 72 60 36 21 18 26 30 45 47 51 56 53 46 44 44 43 43 49 50 50 48 49 49 49 49 49 49 50 51 57 64 58 41 47 48 70 81 86 81 78 68
79 77 79 72 62 47 28 18 23 33 40 43 37 40 40 36 37 40 40 38 39 44 45 46 48 53 54 57 57 57 56 51 47 54 64 48 40 61 75 82 86 82 79
Wind_Direction_850mb
155 149 157 162 158 149 146 146 148 143 138 126 120 124 125 126 125 128 135 141 147 154 153 141 122 111 103 108 110 110 115 132 135 122 122 119 118 128 127 122 123 119 119
142 151 161 165 161 152 147 153 153 151 149 145 133 133 131 131 128 124 126 129 127 127 125 123 119 106 100 105 107 111 113 114 114 117 123 119 117 123 122 124 129 126 116
137 151 163 166 165 164 157 155 155 157 158 158 153 155 145 140 141 134 128 123 114 110 115 114 111 101 98 103 107 111 112 110 109 111 115 117 120 130 127 125 127 121 118
136 158 164 165 166 172 175 170 167 166 167 167 170 169 166 156 160 155 142 135 126 125 131 143 135 122 102 108 111 114 113 110 108 99 123 118 132 136 139 131 129 128 116
118 135 158 164 171 171 175 180 180 183 184 179 177 184 179 174 173 172 162 154 152 164 162 160 154 146 126 125 132 127 122 114 114 116 115 127 139 141 147 152 151 140 125
142 113 139 155 173 178 185 194 196 194 198 200 193 194 191 193 189 188 190 190 190 181 178 174 171 179 178 150 155 146 135 126 127 134 128 124 151 160 151 154 150 144 130
198 147 158 150 152 162 175 193 205 209 204 204 207 208 210 206 207 209 209 215 206 200 191 189 193 200 183 164 165 160 159 151 149 145 127 109 173 166 155 150 144 138 132
217 203 219 208 210 211 212 211 209 212 216 213 210 211 215 220 221 219 217 221 211 211 207 206 202 204 183 165 168 171 177 166 174 171 153 175 147 158 166 152 148 142 137
194 212 240 253 254 237 226 226 227 224 220 219 221 222 220 220 224 224 220 222 218 217 218 220 213 206 196 174 172 176 187 188 191 189 189 208 198 156 142 145 145 149 128
223 226 246 258 255 249 238 232 233 232 233 231 229 226 226 224 223 223 225 226 225 224 221 223 218 216 206 190 179 178 187 195 195 195 204 219 211 186 170 155 160 161 220
232 246 261 256 255 251 250 243 241 249 245 242 236 230 228 227 227 229 227 227 229 227 225 225 222 218 213 205 194 188 194 199 201 200 211 214 190 193 188 183 193 250 302
239 247 250 249 251 256 257 259 261 259 248 243 240 236 229 226 229 230 229 229 232 232 229 228 229 223 218 212 207 198 198 206 208 211 214 211 194 198 198 206 227 259 276
248 247 244 243 239 253 257 261 265 264 256 248 238 233 229 225 223 229 230 226 226 231 234 233 231 229 225 219 216 213 212 213 208 203 189 209 225 223 222 226 227 248 262
242 244 242 240 240 246 252 256 259 260 258 255 246 236 231 226 222 221 225 230 233 233 244 243 242 239 234 230 224 220 219 221 212 205 196 200 233 252 248 235 244 251 262
253 249 248 246 251 256 260 252 254 253 255 255 254 251 246 241 231 228 230 238 244 240 242 252 248 241 239 236 232 226 222 224 225 223 219 217 230 256 256 257 263 261 262
264 261 261 259 260 260 252 251 251 251 253 253 251 250 250 244 242 239 230 233 235 241 243 246 253 248 244 241 239 235 228 223 223 226 228 227 224 238 257 266 280 264 252
264 271 263 263 257 253 249 248 249 253 255 255 255 252 249 248 244 239 240 243 242 241 244 249 250 248 247 243 241 241 237 227 224 226 230 233 229 233 247 260 272 253 245
275 283 284 272 258 250 249 246 247 251 256 260 260 256 252 250 248 248 246 245 247 247 246 245 245 248 247 250 245 242 241 238 234 228 226 234 236 238 245 258 270 246 239
285 286 276 273 270 259 254 252 250 249 254 261 265 262 256 252 250 248 248 250 246 242 243 244 244 245 248 251 254 251 245 241 239 238 234 237 238 240 252 260 263 250 237
260 264 266 263 265 260 255 256 256 252 254 258 263 263 257 250 248 248 247 247 249 249 246 245 246 245 245 249 257 256 251 243 239 239 240 241 242 240 243 254 261 259 240
273 260 254 253 260 259 258 259 260 261 262 264 267 262 254 246 245 248 246 245 245 246 248 247 247 247 242 244 255 255 257 254 243 235 237 243 242 239 239 243 251 263 247
36 50 230 242 242 251 263 269 269 268 265 263 262 259 254 247 245 248 253 249 247 246 247 250 248 248 247 242 241 247 254 256 254 242 240 239 244 246 242 253 252 255 243
20 20 22 16 254 248 262 274 275 275 269 265 265 264 257 248 244 246 249 251 247 245 247 247 247 248 250 248 239 234 251 247 254 252 245 246 246 245 243 237 242 248 240
6 5 8 10 0 264 261 265 281 280 277 274 271 261 249 245 245 246 246 247 249 250 249 248 247 246 246 247 247 240 234 249 248 262 249 246 241 246 244 229 241 243 240
359 358 356 357 351 339 298 275 269 278 278 276 269 260 252 244 241 242 244 244 244 244 246 246 246 246 246 246 244 246 247 248 250 260 269 259 253 246 239 238 241 241 242
356 354 351 344 347 341 334 331 291 266 278 287 277 259 249 247 245 249 246 242 244 245 244 244 247 249 249 248 247 245 245 248 251 249 248 253 267 253 242 238 239 239 242